[[{"header":{"parameterUnit":"m.s-1","parameterCategory":1,"la1":30.2991,"la2":30.254,"lo1":-89.0895,"lo2":-89.0444,"dy":0.0017,"dx":0.0017,"nx":28,"ny":28,"refTime":"2024-05-16T03:00:00:Z","depth":0,"parameterNumber":2,"parameterNumberName":"U-component_of_WINDS"},"data":[0,0,0,0,0,0,0,0,0,0,0,0,0,0,0,0,0,0,0,0,0,0,0,0,0,0,0,0,0,0,0,0,0,0,0,0,0,0,0,0,0,0,0,0,0,0,0,0,0,0,0,0,0,0,0,0,0,0,0.803,0.8029,0,0.7921,0.792,0.7919,0.7822,0.7821,0.782,0.7819,0.7707,0.7705,0.7703,0,0,0,0,0,0,0,0,0,0,0,0,0,0.8154,0.8152,0.803,0.8029,0.8028,0.7922,0.792,0.7919,0.7822,0.7821,0.782,0.7818,0.7707,0.7705,0.7703,0,0,0,0,0,0,0,0,0,0,0,0,0,0.8078,0.8151,0.8031,0.7967,0.796,0.7922,0.792,0.7918,0.7823,0.7821,0.7819,0.7818,0.7708,0.7705,0.7703,0.7719,0,0,0.7694,0.7692,0,0,0,0,0,0,0,0,0.8083,0.8074,0.7978,0.7971,0.7963,0.7884,0.7922,0.7851,0.7823,0.7875,0.7819,0.7817,0.7767,0.7759,0.7742,0.7713,0.7708,0.7693,0.7692,0.769,0.769,0,0,0,0,0,0,0,0.8088,0.8078,0.7987,0.7976,0.7968,0.7943,0.7931,0.7909,0.7832,0.787,0.7863,0.7851,0.7763,0.7745,0.7739,0.7707,0.7693,0.7691,0.7689,0.7688,0.7685,0.7686,0,0,0,0,0,0,0.8103,0.8083,0.7991,0.7984,0.802,0.7943,0.7928,0.7911,0.7832,0.7818,0.7853,0.7847,0.7751,0.7743,0.7735,0.7748,0.769,0.7688,0.7686,0.7683,0.7685,0.7687,0,0,0,0,0,0,0.8106,0.8096,0.7995,0.8031,0.8017,0.7942,0.7923,0.791,0.7892,0.7819,0.7804,0.7849,0.775,0.7739,0.7723,0.7742,0.7686,0.7684,0.7681,0.7684,0.7686,0.7774,0,0,0,0,0,0,0.811,0.8097,0.8103,0.8032,0.8015,0.7986,0.7925,0.7909,0.7888,0.7879,0.7812,0.7799,0.7747,0.7728,0.772,0.7737,0.7682,0.7679,0.7682,0.7685,0.7769,0.7779,0.7788,0,0,0,0,0,0.8115,0.8132,0.8104,0.8093,0.8021,0.7987,0.7977,0.7918,0.789,0.7894,0.7847,0.7801,0.7742,0.7727,0.7718,0.7734,0.7678,0.7681,0.7685,0.7765,0.7777,0.7788,0,0,0,0,0,0,0.8207,0.8122,0.8089,0.8084,0.8044,0.7971,0.7975,0.7933,0.79,0.7893,0.7821,0.7806,0.7799,0.7765,0.775,0.7745,0.7703,0.7705,0.7768,0.7779,0.7788,0.7796,0.7679,0,0,0,0,0,0.8227,0.8207,0.8133,0.8136,0.8117,0.805,0.8033,0.7991,0.7946,0.7928,0.788,0.7838,0.7809,0.7792,0.7762,0.7764,0.7748,0.7771,0.778,0.7788,0.7791,0.7789,0.7798,0.7699,0.7699,0.7699,0,0,0.8267,0.8218,0.821,0.8153,0.8117,0.8098,0.8036,0.8018,0.8003,0.7925,0.7907,0.7871,0.7819,0.7812,0.7807,0.7784,0.7815,0.7793,0.78,0.7798,0.7793,0.7803,0.7811,0.7702,0.7701,0.7701,0,0,0.833,0.8292,0.8289,0.8254,0.82,0.8155,0.8155,0.8089,0.8061,0.8042,0.7983,0.7964,0.7917,0.7883,0.7859,0.791,0.7866,0.7902,0.7951,0.795,0.7958,0.7964,0.7982,0.7989,0.7905,0.7905,0.7905,0,0.8387,0.8356,0.8293,0.8279,0.8256,0.8185,0.8182,0.8151,0.809,0.8075,0.8051,0.799,0.795,0.7934,0.7947,0.793,0.7927,0.7909,0.7962,0.7968,0.7973,0.7989,0.7996,0.791,0.7909,0.7909,0.7908,0,0.8428,0.8408,0.8412,0.8355,0.8333,0.8324,0.826,0.8245,0.8205,0.8163,0.8144,0.8094,0.8052,0.8046,0.8007,0.8024,0.8011,0.7975,0.7932,0.7988,0.8002,0.8007,0.7917,0.7915,0.7914,0.7912,0,0,0.8545,0.8455,0.8457,0.843,0.8366,0.8348,0.8337,0.8297,0.8284,0.8245,0.8233,0.8195,0.8161,0.8135,0.8091,0.809,0.8133,0.8054,0.8052,0.807,0.8148,0.8175,0.8183,0.8104,0.8105,0.8106,0.8152,0,0.8597,0.8572,0.8516,0.8509,0.8489,0.8422,0.8411,0.8371,0.8331,0.8308,0.8264,0.8238,0.8196,0.8179,0.8176,0.8129,0.8148,0.8125,0.8091,0.8091,0.8106,0.819,0.8218,0.8264,0.8157,0.8158,0.8159,0,0.8654,0.8619,0.861,0.8547,0.8536,0.8528,0.8487,0.8466,0.8418,0.8389,0.836,0.8312,0.8296,0.8256,0.8233,0.8218,0.8201,0.8176,0.8177,0.817,0.8128,0.8185,0.8278,0.8285,0.8167,0.8166,0.8166,0,0.874,0.869,0.8678,0.8658,0.8584,0.858,0.8548,0.8499,0.8479,0.8442,0.8428,0.8391,0.837,0.8342,0.8285,0.8261,0.8267,0.8223,0.8242,0.8244,0.8245,0.8246,0.8336,0.8237,0.8236,0.8236,0.8236,0,0.8803,0.88,0.8716,0.8708,0.8703,0.8638,0.8634,0.8597,0.8554,0.8537,0.8477,0.8463,0.839,0.8367,0.8322,0.8309,0.83,0.8276,0.8264,0.8281,0.8284,0.8268,0.8263,0.8238,0.8238,0.8237,0.8237,0,0.8897,0.884,0.8823,0.8754,0.8737,0.8736,0.8677,0.8667,0.8625,0.8605,0.8597,0.8529,0.85,0.8441,0.8394,0.8364,0.8361,0.834,0.8377,0.8369,0.8391,0.839,0.8473,0.848,0.8379,0.838,0.8381,0,0.894,0.8936,0.8868,0.8853,0.8824,0.8801,0.878,0.8716,0.8697,0.8642,0.8639,0.8605,0.8574,0.8529,0.8476,0.844,0.8418,0.845,0.8412,0.8429,0.8417,0.8418,0.8416,0.8458,0.8459,0.846,0.8461,0,0.9023,0.8995,0.8967,0.893,0.8907,0.8874,0.8838,0.8829,0.8757,0.8738,0.8707,0.8684,0.8637,0.8603,0.856,0.8527,0.8482,0.8474,0.8476,0.8493,0.8514,0.8501,0.8399,0.8472,0.8471,0.847,0.8469,0.8469,0.9091,0.9085,0.9036,0.9007,0.8973,0.8941,0.8929,0.8885,0.8858,0.8815,0.8779,0.8752,0.8704,0.8641,0.8611,0.8588,0.8566,0.857,0.8571,0.8572,0.8579,0.8519,0.858,0.858,0.8579,0.8579,0.8579,0,0.917,0.9136,0.911,0.9062,0.9039,0.9,0.8958,0.8941,0.8918,0.8878,0.8849,0.8813,0.878,0.8725,0.8688,0.868,0.8658,0.8672,0.8671,0.8664,0.8601,0.8602,0.869,0.869,0.869,0.869,0.869,0.869,0.9208,0.9195,0.9162,0.9131,0.9096,0.9069,0.9048,0.9018,0.8986,0.8949,0.8922,0.8886,0.884,0.8799,0.8767,0.8751,0.874,0.876,0.8738,0.8679,0.8669,0.8659,0.866,0.8758,0.8759,0.8803,0.8803,0.8804]},{"header":{"parameterUnit":"m.s-1","parameterCategory":1,"la1":30.2991,"la2":30.254,"lo1":-89.0895,"lo2":-89.0444,"dy":0.0017,"dx":0.0017,"nx":28,"ny":28,"refTime":"2024-05-16T03:00:00:Z","depth":0,"parameterNumber":3,"parameterNumberName":"V-component_of_WINDS"},"data":[0,0,0,0,0,0,0,0,0,0,0,0,0,0,0,0,0,0,0,0,0,0,0,0,0,0,0,0,0,0,0,0,0,0,0,0,0,0,0,0,0,0,0,0,0,0,0,0,0,0,0,0,0,0,0,0,0,0,7.2499,7.25,0,7.2595,7.2596,7.2597,7.2572,7.257,7.2568,7.2567,7.2662,7.2666,7.267,0,0,0,0,0,0,0,0,0,0,0,0,0,7.229,7.2294,7.2499,7.25,7.2501,7.2595,7.2596,7.2598,7.2573,7.257,7.2568,7.2566,7.2661,7.2666,7.2671,0,0,0,0,0,0,0,0,0,0,0,0,0,7.2383,7.2295,7.2498,7.25,7.2501,7.2595,7.2596,7.2598,7.2573,7.257,7.2567,7.2565,7.2659,7.2665,7.2672,7.2769,0,0,7.2691,7.2694,0,0,0,0,0,0,0,0,7.2378,7.239,7.2499,7.25,7.2501,7.2569,7.2558,7.2655,7.2574,7.2546,7.2567,7.2563,7.2633,7.2641,7.2666,7.2773,7.2777,7.2692,7.2696,7.2699,7.27,0,0,0,0,0,0,0,7.2371,7.2386,7.2537,7.25,7.2502,7.2495,7.2505,7.2576,7.2604,7.2548,7.2546,7.2558,7.2633,7.266,7.2668,7.2779,7.2692,7.2697,7.2701,7.2704,7.2971,7.2974,0,0,0,0,0,0,7.2364,7.2381,7.2534,7.254,7.2431,7.2501,7.2512,7.255,7.2603,7.2609,7.2561,7.2557,7.265,7.266,7.2671,7.2789,7.2699,7.2705,7.2708,7.2968,7.2972,7.2975,0,0,0,0,0,0,7.236,7.2378,7.253,7.246,7.2479,7.2508,7.255,7.2553,7.258,7.2613,7.2617,7.2582,7.2648,7.2662,7.2745,7.2792,7.2708,7.2713,7.2964,7.2969,7.2974,7.3025,0,0,0,0,0,0,7.2354,7.2376,7.2414,7.2461,7.2483,7.2603,7.2553,7.2557,7.2591,7.2587,7.2635,7.264,7.2647,7.2735,7.2751,7.2799,7.2718,7.296,7.2966,7.2972,7.3019,7.3031,7.3041,0,0,0,0,0,7.2346,7.2424,7.2416,7.2435,7.2531,7.2606,7.2618,7.2626,7.2595,7.2633,7.2655,7.2638,7.2784,7.2744,7.2762,7.2812,7.2957,7.2965,7.2972,7.3014,7.3029,7.3041,0,0,0,0,0,0,7.238,7.243,7.2422,7.2517,7.2558,7.2601,7.2649,7.264,7.2689,7.2683,7.269,7.2701,7.2786,7.2807,7.2762,7.2909,7.2866,7.2877,7.2893,7.2906,7.2917,7.291,7.2724,0,0,0,0,0,7.2399,7.2457,7.2497,7.2577,7.2598,7.262,7.2653,7.2656,7.2698,7.2714,7.2741,7.2782,7.2837,7.2872,7.2925,7.3022,7.3032,7.3066,7.3076,7.3085,7.3095,7.3149,7.3164,7.2999,7.2999,7.2999,0,0,7.2438,7.2473,7.2509,7.2585,7.2617,7.2676,7.2635,7.2699,7.2743,7.2723,7.2804,7.2826,7.2871,7.2962,7.3003,7.2982,7.3143,7.3094,7.3101,7.3106,7.3158,7.3173,7.3187,7.3004,7.3003,7.3002,0,0,7.254,7.2572,7.2643,7.2676,7.2724,7.2739,7.2756,7.2801,7.2816,7.2897,7.2884,7.2935,7.303,7.3063,7.3092,7.3207,7.3194,7.3224,7.3281,7.3333,7.3346,7.3358,7.34,7.3414,7.3233,7.3233,7.3233,0,7.2582,7.2672,7.268,7.2746,7.278,7.2766,7.2838,7.2869,7.2932,7.2955,7.2931,7.305,7.3079,7.3178,7.3207,7.323,7.325,7.3219,7.3344,7.3356,7.3367,7.3406,7.3422,7.3237,7.3236,7.3236,7.3236,0,7.2722,7.2784,7.2835,7.2898,7.2938,7.3006,7.3023,7.3062,7.3062,7.3079,7.3162,7.3197,7.3256,7.328,7.3279,7.3379,7.3364,7.3342,7.3299,7.3386,7.3423,7.3438,7.3242,7.324,7.3239,7.3238,0,0,7.2848,7.2915,7.2933,7.2962,7.3015,7.3063,7.3131,7.319,7.3224,7.3268,7.3325,7.3405,7.3385,7.3419,7.3421,7.3467,7.3557,7.3439,7.3441,7.3461,7.367,7.3687,7.3705,7.3549,7.3552,7.3554,7.3667,0,7.2955,7.3075,7.3084,7.3192,7.325,7.3239,7.3297,7.3336,7.3354,7.3405,7.3423,7.3481,7.345,7.347,7.3515,7.3537,7.3599,7.3529,7.3601,7.3604,7.3591,7.3724,7.3742,7.3847,7.3681,7.3684,7.3686,0,7.3095,7.3145,7.326,7.3306,7.333,7.3383,7.3439,7.3488,7.3532,7.3541,7.3579,7.3576,7.3644,7.3598,7.3693,7.3645,7.3675,7.3691,7.3695,7.3702,7.365,7.3736,7.388,7.3896,7.3709,7.3707,7.3705,0,7.3177,7.3272,7.3353,7.3378,7.3434,7.3471,7.3496,7.3537,7.3572,7.362,7.3644,7.3699,7.3729,7.3772,7.3783,7.3749,7.3878,7.3833,7.3888,7.3888,7.3916,7.3914,7.4068,7.3935,7.3934,7.3934,7.3934,0,7.3296,7.3366,7.3391,7.3441,7.352,7.3529,7.3606,7.3628,7.3665,7.3719,7.3711,7.3761,7.3774,7.3826,7.3835,7.3913,7.3926,7.3936,7.3938,7.3937,7.3936,7.3957,7.395,7.3938,7.3937,7.3937,7.3936,0,7.34,7.3419,7.3507,7.3553,7.3566,7.3622,7.3661,7.3708,7.3725,7.3793,7.381,7.3836,7.3897,7.3913,7.3986,7.3992,7.4084,7.4079,7.407,7.407,7.4125,7.412,7.4298,7.4322,7.4172,7.4174,7.4175,0,7.3475,7.3529,7.3581,7.3617,7.3644,7.3702,7.3739,7.375,7.3788,7.3842,7.3884,7.3944,7.3994,7.4092,7.4117,7.4173,7.4169,7.4228,7.4178,7.4176,7.4171,7.4168,7.4174,7.4238,7.4239,7.4241,7.4242,0,7.3606,7.3613,7.3667,7.3724,7.3769,7.3814,7.3857,7.3887,7.3904,7.3948,7.4011,7.405,7.4125,7.4186,7.4242,7.4266,7.4257,7.4257,7.4273,7.4273,7.4267,7.4272,7.4097,7.4253,7.4252,7.4251,7.4251,7.425,7.3698,7.3747,7.3791,7.3851,7.3885,7.3927,7.3974,7.3997,7.4051,7.4114,7.4117,7.4186,7.4229,7.4304,7.4332,7.4386,7.4368,7.439,7.4396,7.4402,7.4407,7.4258,7.4396,7.4395,7.4395,7.4395,7.4395,0,7.383,7.3858,7.3914,7.3975,7.4023,7.4011,7.4059,7.4099,7.416,7.4201,7.425,7.4323,7.4382,7.4412,7.4471,7.4508,7.4505,7.4523,7.4521,7.4527,7.4419,7.44,7.4524,7.4524,7.4524,7.4524,7.4524,7.4524,7.3904,7.3985,7.3998,7.4095,7.4123,7.4192,7.422,7.4258,7.429,7.4373,7.4422,7.4442,7.4479,7.454,7.4593,7.4601,7.4623,7.4643,7.4648,7.4547,7.4534,7.4521,7.4504,7.4647,7.4648,7.4751,7.4752,7.4753]}]]